AirNav   Advertisement
 
 1490 users online  

CO38 Comanche Airfield LLC Airport
Strasburg, Colorado, USA


FAA INFORMATION EFFECTIVE 14 SEPTEMBER 2017

Location

FAA Identifier: CO38
Lat/Long: 39-44-49.9000N / 104-18-46.8000W
39-44.831667N / 104-18.780000W
39.7471944 / -104.3130000
(estimated)
Elevation: 5350 ft. / 1631 m (estimated)
Variation: 10E (1995)
From city: 1 mile E of STRASBURG, CO
Time zone: UTC -6 (UTC -7 during Standard Time)
Zip code: 80136

Airport Operations

Airport use: Private use. Permission required prior to landing
Activation date: 03/2000
Control tower: no
ARTCC: DENVER CENTER
FSS: DENVER FLIGHT SERVICE STATION
Attendance: UNATNDD
Wind indicator: yes
Segmented circle: no

Airport Communications

WX AWOS-3 at FTG (11 nm W): 119.025 (303-261-9104)
WX ASOS at DEN (18 nm W): PHONE 303-342-0838

Nearby radio navigation aids

VOR radial/distance  VOR name  Freq  Var
FQFr065/14.6FALCON VORTAC116.3011E
DENr096/16.5DENVER VOR/DME117.9008E
DVVr114/16.9MILE HIGH VORTAC114.7008E
BJCr094/39.3JEFFCO VOR/DME115.4011E

 
NDB name  Hdg/Dist  Freq  Var  ID
SKIPI108/6.232108EFT ..-. -

Airport Services

Runway Information

Runway 17/35

Dimensions: 3000 x 80 ft. / 914 x 24 m
Surface: dirt
RUNWAY 17  RUNWAY 35
Traffic pattern: leftleft
Obstructions: none35 ft. pline, 1700 ft. from runway

Airport Ownership and Management from official FAA records

Ownership: Privately-owned
Owner: COMANCHE AIRFIELD LLC
P.O. BOX 448
STRASBURG, CO 80136
Phone 303-622-9654
Manager: MARCUS LEE REES
P.O. BOX 448
STRASBURG, CO 80136
Phone 303-622-9654

Airport Operational Statistics

Aircraft based on the field: 11
Single engine airplanes: 8
Multi engine airplanes: 1
Ultralights: 2
    

Instrument Procedures

There are no published instrument procedures at CO38.

Some nearby airports with instrument procedures:

KFTG - Front Range Airport (11 nm W)
KDEN - Denver International Airport (18 nm NW)
KBKF - Buckley Air Force Base (20 nm W)
KAPA - Centennial Airport (27 nm SW)
KEIK - Erie Municipal Airport (37 nm NW)
 
Loc | Ops | Rwys | IFR | FBO | Links
Com | Nav | Svcs | Stats | Notes


 
Area around CO38 (Comanche Airfield LLC Airport)
 
Road maps at: MapQuest Bing Google
 
Aerial photo
No photo
 
Sectional chart

 
Airport distance calculator
Flying to Comanche Airfield LLC Airport? Find the distance to fly.

From to CO38

Sunrise and sunset
Times for 20-Sep-2017
 Local
(UTC-6)
 Zulu
(UTC)
Morning civil twilight06:1712:17
Sunrise06:4412:44
Sunset18:5700:57
Evening civil twilight19:2401:24

Current date and time
Zulu (UTC)  20-Sep-2017 20:23:49
Local (UTC-6)  20-Sep-2017 14:23:49
 
METAR
KFTG 
11nm W 
201953Z 16013G25KT 10SM FEW120 25/M02 A2989
KDEN 
16nm W 
201953Z 14014G22KT 10SM FEW100 25/M02 A2986 RMK AO2 SLP055 T02501022
KBKF 
20nm W 
201958Z 16011G18KT 10SM FEW100 24/M01 A2987 RMK AO2A SLP059 T02441011
TAF
KDEN 
16nm W 
201732Z 2018/2124 19013KT P6SM FEW090 FEW220 FM202100 18014G23KT P6SM FEW100 FEW220 FM210400 19012KT P6SM FEW120 FEW220 FM210700 21011KT P6SM FEW220 FM211400 24009KT P6SM FEW220 FM211800 19011KT P6SM FEW220
KBKF 
20nm W 
201705Z 2017/2123 16012KT 9999 FEW100 SCT200 QNH2981INS TEMPO 2017/2020 17012G20KT TEMPO 2020/2102 19015G25KT 520003 BECMG 2105/2106 20009KT 9999 FEW100 QNH2979INS BECMG 2114/2115 22015G25KT 9999 FEW200 510009 QNH2970INS TEMPO 2117/2118 22020G30KT 520009 TX25/2023Z TN09/2112Z
NOTAMs
Click for the latest NOTAMs
NOTAMs are issued by the DoD/FAA and will open in a separate window not controlled by AirNav.

 

 
 

Would you like to see your business listed on this page?

 If your business provides an interesting product or service to pilots, flight crews, aircraft, or users of the Comanche Airfield LLC Airport, you should consider listing it here.  To start the listing process, click on the button below
 
Add a business
 

Other Pages about Comanche Airfield LLC Airport

Update a link
 
Copyright © AirNav, LLC. All rights reserved. Privacy Policy  Contact